Tracking 29892 objects as of 21-Nov-2024
HD Live streaming from Space Station
objects crossing your sky now

STARLINK-5079

Track STARLINK-5079 now!
10-day predictions
STARLINK-5079 is classified as:


NORAD ID: 53999
Int'l Code: 2022-125AM
Perigee: 546.0 km
Apogee: 547.8 km
Inclination: 53.2 °
Period: 95.4 minutes
Semi major axis: 6917 km
RCS: Unknown
Launch date: October 5, 2022
Source: United States (US)
Launch site: AIR FORCE WESTERN TEST RANGE (AFWTR)
Your satellite tracking list
Your tracking list is empty




NASA's NSSDC Master Catalog

Two Line Element Set (TLE):
1 53999U 22125AM  24326.00662546  .00001620  00000-0  11984-3 0  9998
2 53999  53.2146 180.4823 0001318 106.2448 253.8689 15.08840968118024
Source of the keplerian elements: AFSPC